Time,TemperatureF,DewpointF,PressureIn,WindDirection,WindDirectionDegrees,WindSpeedMPH,WindSpeedGustMPH,Humidity,HourlyPrecipIn,Conditions,Clouds,dailyrainin,SoftwareType,DateUTC
2013-02-08 00:00:00,40.9,38.8,30.12,North,355,7.0,9.0,92,0.00,,,0.00,WeatherCatV1.02B3,2013-02-08 06:00:00,
2013-02-08 00:05:00,40.8,38.9,30.12,NNW,345,6.0,8.0,93,0.00,,,0.00,WeatherCatV1.02B3,2013-02-08 06:05:00,
2013-02-08 00:10:00,40.7,38.8,30.12,North,5,9.0,14.0,93,0.00,,,0.00,WeatherCatV1.02B3,2013-02-08 06:10:00,
2013-02-08 00:15:00,40.5,38.6,30.13,North,5,8.0,11.0,93,0.00,,,0.00,WeatherCatV1.02B3,2013-02-08 06:15:00,
2013-02-08 00:20:00,40.4,38.5,30.13,North,5,5.0,12.0,93,0.00,,,0.00,WeatherCatV1.02B3,2013-02-08 06:20:00,
2013-02-08 00:25:00,40.1,38.2,30.13,NNW,344,8.0,12.0,93,0.00,,,0.00,WeatherCatV1.02B3,2013-02-08 06:25:00,
2013-02-08 00:30:00,39.9,38.0,30.13,North,349,9.0,11.0,93,0.00,,,0.00,WeatherCatV1.02B3,2013-02-08 06:30:00,
2013-02-08 00:35:00,39.7,38.1,30.13,NNE,25,3.0,12.0,94,0.00,,,0.00,WeatherCatV1.02B3,2013-02-08 06:35:00,
2013-02-08 00:40:00,39.5,37.9,30.14,North,9,7.0,11.0,94,0.00,,,0.00,WeatherCatV1.02B3,2013-02-08 06:40:00,
2013-02-08 00:45:00,39.3,37.7,30.14,NNE,30,4.0,10.0,94,0.00,,,0.00,WeatherCatV1.02B3,2013-02-08 06:45:00,
2013-02-08 00:50:00,39.1,37.5,30.14,North,0,8.0,17.0,94,0.00,,,0.00,WeatherCatV1.02B3,2013-02-08 06:50:00,
2013-02-08 00:55:00,38.9,37.3,30.14,NNE,26,5.0,11.0,94,0.00,,,0.00,WeatherCatV1.02B3,2013-02-08 06:55:00,
2013-02-08 01:00:00,38.6,36.8,30.14,NNW,346,9.0,14.0,93,0.00,,,0.00,WeatherCatV1.02B3,2013-02-08 07:00:00,
2013-02-08 01:05:00,38.3,36.5,30.15,North,355,7.0,8.0,93,0.00,,,0.00,WeatherCatV1.02B3,2013-02-08 07:05:00,
2013-02-08 01:10:00,38.1,36.3,30.15,NNE,30,9.0,13.0,93,0.00,,,0.00,WeatherCatV1.02B3,2013-02-08 07:10:00,
2013-02-08 01:15:00,37.8,36.0,30.15,North,355,9.0,17.0,93,0.00,,,0.00,WeatherCatV1.02B3,2013-02-08 07:15:00,
2013-02-08 01:20:00,37.5,35.7,30.15,North,350,5.0,11.0,93,0.00,,,0.00,WeatherCatV1.02B3,2013-02-08 07:20:00,
2013-02-08 01:25:00,37.2,35.6,30.15,North,0,9.0,14.0,94,0.00,,,0.00,WeatherCatV1.02B3,2013-02-08 07:25:00,
2013-02-08 01:30:00,36.9,35.3,30.15,NNE,19,15.0,18.0,94,0.00,,,0.00,WeatherCatV1.02B3,2013-02-08 07:30:00,
2013-02-08 01:35:00,36.6,35.0,30.15,North,5,13.0,15.0,94,0.00,,,0.00,WeatherCatV1.02B3,2013-02-08 07:35:00,
2013-02-08 01:40:00,35.9,34.1,30.16,NNW,340,11.0,11.0,93,0.00,,,0.00,WeatherCatV1.02B3,2013-02-08 07:40:00,
2013-02-08 01:45:00,35.5,33.9,30.16,NNE,15,8.0,12.0,94,0.00,,,0.00,WeatherCatV1.02B3,2013-02-08 07:45:00,
2013-02-08 01:50:00,35.2,33.6,30.17,North,0,8.0,15.0,94,0.00,,,0.00,WeatherCatV1.02B3,2013-02-08 07:50:00,
2013-02-08 01:55:00,35.0,33.5,30.17,North,5,12.0,12.0,94,0.00,,,0.00,WeatherCatV1.02B3,2013-02-08 07:55:00,
2013-02-08 02:00:00,34.7,33.2,30.17,NNE,22,7.0,14.0,94,0.00,,,0.00,WeatherCatV1.02B3,2013-02-08 08:00:00,
2013-02-08 02:05:00,34.5,33.0,30.17,North,11,3.0,11.0,94,0.00,,,0.00,WeatherCatV1.02B3,2013-02-08 08:05:00,
2013-02-08 02:10:00,34.4,32.9,30.18,North,10,6.0,11.0,94,0.00,,,0.00,WeatherCatV1.02B3,2013-02-08 08:10:00,
2013-02-08 02:15:00,34.3,32.8,30.18,NNE,18,7.0,10.0,94,0.00,,,0.00,WeatherCatV1.02B3,2013-02-08 08:15:00,
2013-02-08 02:20:00,34.2,32.7,30.18,North,355,7.0,13.0,94,0.00,,,0.00,WeatherCatV1.02B3,2013-02-08 08:20:00,
2013-02-08 02:25:00,34.1,32.3,30.17,NNW,331,15.0,15.0,93,0.00,,,0.00,WeatherCatV1.02B3,2013-02-08 08:25:00,
2013-02-08 02:30:00,34.2,32.4,30.18,NNE,12,10.0,10.0,93,0.00,,,0.00,WeatherCatV1.02B3,2013-02-08 08:30:00,
2013-02-08 02:35:00,34.2,32.4,30.18,NE,44,4.0,9.0,93,0.00,,,0.00,WeatherCatV1.02B3,2013-02-08 08:35:00,
2013-02-08 02:40:00,34.2,32.4,30.18,North,0,8.0,9.0,93,0.00,,,0.00,WeatherCatV1.02B3,2013-02-08 08:40:00,
2013-02-08 02:45:00,34.3,32.5,30.18,North,5,3.0,5.0,93,0.00,,,0.00,WeatherCatV1.02B3,2013-02-08 08:45:00,
2013-02-08 02:50:00,34.3,32.5,30.18,NNE,13,2.0,8.0,93,0.00,,,0.00,WeatherCatV1.02B3,2013-02-08 08:50:00,
2013-02-08 02:55:00,34.4,32.6,30.18,NNE,21,6.0,9.0,93,0.00,,,0.00,WeatherCatV1.02B3,2013-02-08 08:55:00,
2013-02-08 03:00:00,34.4,32.6,30.18,NNW,348,7.0,8.0,93,0.00,,,0.00,WeatherCatV1.02B3,2013-02-08 09:00:00,
2013-02-08 03:05:00,34.4,32.6,30.18,NNE,15,4.0,9.0,93,0.00,,,0.00,WeatherCatV1.02B3,2013-02-08 09:05:00,
2013-02-08 03:10:00,34.4,32.6,30.19,North,355,7.0,11.0,93,0.00,,,0.00,WeatherCatV1.02B3,2013-02-08 09:10:00,
2013-02-08 03:15:00,34.4,32.6,30.19,North,355,14.0,15.0,93,0.00,,,0.00,WeatherCatV1.02B3,2013-02-08 09:15:00,
2013-02-08 03:20:00,34.1,32.0,30.19,North,9,12.0,18.0,92,0.00,,,0.00,WeatherCatV1.02B3,2013-02-08 09:20:00,
2013-02-08 03:25:00,33.9,31.8,30.19,NNW,343,6.0,9.0,92,0.00,,,0.00,WeatherCatV1.02B3,2013-02-08 09:25:00,
2013-02-08 03:30:00,33.8,32.0,30.20,North,5,6.0,9.0,93,0.00,,,0.00,WeatherCatV1.02B3,2013-02-08 09:30:00,
2013-02-08 03:35:00,33.6,31.5,30.20,NNW,340,8.0,13.0,92,0.00,,,0.00,WeatherCatV1.02B3,2013-02-08 09:35:00,
2013-02-08 03:40:00,33.4,31.3,30.20,North,355,8.0,12.0,92,0.00,,,0.00,WeatherCatV1.02B3,2013-02-08 09:40:00,
2013-02-08 03:45:00,33.2,31.1,30.20,NNE,27,4.0,13.0,92,0.00,,,0.00,WeatherCatV1.02B3,2013-02-08 09:45:00,
2013-02-08 03:50:00,32.9,30.6,30.21,NNE,27,8.0,12.0,91,0.00,,,0.00,WeatherCatV1.02B3,2013-02-08 09:50:00,
2013-02-08 03:55:00,32.6,30.3,30.21,NNE,32,7.0,12.0,91,0.00,,,0.00,WeatherCatV1.02B3,2013-02-08 09:55:00,
2013-02-08 04:00:00,32.4,30.1,30.21,North,5,8.0,13.0,91,0.00,,,0.00,WeatherCatV1.02B3,2013-02-08 10:00:00,
2013-02-08 04:05:00,32.4,30.1,30.22,NE,35,6.0,8.0,91,0.00,,,0.00,WeatherCatV1.02B3,2013-02-08 10:05:00,
2013-02-08 04:10:00,32.4,30.1,30.22,North,5,5.0,8.0,91,0.00,,,0.00,WeatherCatV1.02B3,2013-02-08 10:10:00,
2013-02-08 04:15:00,32.3,30.2,30.22,NNW,347,8.0,13.0,92,0.00,,,0.00,WeatherCatV1.02B3,2013-02-08 10:15:00,
2013-02-08 04:20:00,32.3,30.2,30.22,NNW,331,10.0,14.0,92,0.00,,,0.00,WeatherCatV1.02B3,2013-02-08 10:20:00,
2013-02-08 04:25:00,32.2,29.9,30.23,North,0,11.0,15.0,91,0.00,,,0.00,WeatherCatV1.02B3,2013-02-08 10:25:00,
2013-02-08 04:30:00,32.1,29.8,30.23,North,5,8.0,13.0,91,0.00,,,0.00,WeatherCatV1.02B3,2013-02-08 10:30:00,
2013-02-08 04:35:00,32.1,29.8,30.23,NNW,332,11.0,13.0,91,0.00,,,0.00,WeatherCatV1.02B3,2013-02-08 10:35:00,
2013-02-08 04:40:00,32.0,29.7,30.23,North,11,15.0,15.0,91,0.00,,,0.00,WeatherCatV1.02B3,2013-02-08 10:40:00,
2013-02-08 04:45:00,32.0,29.7,30.23,North,355,11.0,16.0,91,0.00,,,0.00,WeatherCatV1.02B3,2013-02-08 10:45:00,
2013-02-08 04:50:00,32.0,29.7,30.24,North,11,8.0,13.0,91,0.00,,,0.00,WeatherCatV1.02B3,2013-02-08 10:50:00,
2013-02-08 04:55:00,32.0,29.7,30.24,NNW,336,6.0,10.0,91,0.00,,,0.00,WeatherCatV1.02B3,2013-02-08 10:55:00,
2013-02-08 05:00:00,32.1,29.8,30.24,North,5,10.0,12.0,91,0.00,,,0.00,WeatherCatV1.02B3,2013-02-08 11:00:00,
2013-02-08 05:05:00,32.0,29.7,30.24,North,11,10.0,17.0,91,0.00,,,0.00,WeatherCatV1.02B3,2013-02-08 11:05:00,
2013-02-08 05:10:00,32.0,29.4,30.24,North,355,12.0,12.0,90,0.00,,,0.00,WeatherCatV1.02B3,2013-02-08 11:10:00,
2013-02-08 05:15:00,32.0,29.4,30.25,North,5,6.0,16.0,90,0.00,,,0.00,WeatherCatV1.02B3,2013-02-08 11:15:00,
2013-02-08 05:20:00,32.0,29.4,30.25,North,355,7.0,11.0,90,0.00,,,0.00,WeatherCatV1.02B3,2013-02-08 11:20:00,
2013-02-08 05:25:00,32.0,29.4,30.25,North,355,5.0,12.0,90,0.00,,,0.00,WeatherCatV1.02B3,2013-02-08 11:25:00,
2013-02-08 05:30:00,32.1,29.8,30.25,NNW,338,15.0,19.0,91,0.00,,,0.00,WeatherCatV1.02B3,2013-02-08 11:30:00,
2013-02-08 05:35:00,32.0,29.4,30.25,NNE,17,7.0,11.0,90,0.00,,,0.00,WeatherCatV1.02B3,2013-02-08 11:35:00,
2013-02-08 05:40:00,32.0,29.4,30.26,North,5,6.0,16.0,90,0.00,,,0.00,WeatherCatV1.02B3,2013-02-08 11:40:00,
2013-02-08 05:45:00,32.0,29.4,30.26,North,355,6.0,13.0,90,0.00,,,0.00,WeatherCatV1.02B3,2013-02-08 11:45:00,
2013-02-08 05:50:00,32.0,29.4,30.26,North,355,7.0,11.0,90,0.00,,,0.00,WeatherCatV1.02B3,2013-02-08 11:50:00,
2013-02-08 05:55:00,32.1,29.5,30.27,North,355,12.0,18.0,90,0.00,,,0.00,WeatherCatV1.02B3,2013-02-08 11:55:00,
2013-02-08 06:00:00,32.1,29.2,30.27,North,9,12.0,15.0,89,0.00,,,0.00,WeatherCatV1.02B3,2013-02-08 12:00:00,
2013-02-08 06:05:00,32.1,29.5,30.27,NNE,26,4.0,7.0,90,0.00,,,0.00,WeatherCatV1.02B3,2013-02-08 12:05:00,
2013-02-08 06:10:00,32.1,29.5,30.27,NNW,344,6.0,6.0,90,0.00,,,0.00,WeatherCatV1.02B3,2013-02-08 12:10:00,
2013-02-08 06:15:00,32.2,29.6,30.27,North,355,8.0,11.0,90,0.00,,,0.00,WeatherCatV1.02B3,2013-02-08 12:15:00,
2013-02-08 06:20:00,32.2,29.6,30.28,North,0,13.0,14.0,90,0.00,,,0.00,WeatherCatV1.02B3,2013-02-08 12:20:00,
2013-02-08 06:25:00,32.2,29.6,30.28,NNW,331,6.0,10.0,90,0.00,,,0.00,WeatherCatV1.02B3,2013-02-08 12:25:00,
2013-02-08 06:30:00,32.2,29.3,30.29,NNE,26,15.0,15.0,89,0.00,,,0.00,WeatherCatV1.02B3,2013-02-08 12:30:00,
2013-02-08 06:35:00,32.1,29.2,30.29,North,355,9.0,14.0,89,0.00,,,0.00,WeatherCatV1.02B3,2013-02-08 12:35:00,
2013-02-08 06:40:00,32.1,29.2,30.29,North,9,6.0,14.0,89,0.00,,,0.00,WeatherCatV1.02B3,2013-02-08 12:40:00,
2013-02-08 06:45:00,32.1,29.2,30.29,NE,49,12.0,12.0,89,0.00,,,0.00,WeatherCatV1.02B3,2013-02-08 12:45:00,
2013-02-08 06:50:00,32.1,29.2,30.29,NNW,341,10.0,10.0,89,0.00,,,0.00,WeatherCatV1.02B3,2013-02-08 12:50:00,
2013-02-08 06:55:00,32.1,29.2,30.30,NNW,346,9.0,12.0,89,0.00,,,0.00,WeatherCatV1.02B3,2013-02-08 12:55:00,
2013-02-08 07:00:00,32.1,29.2,30.29,North,355,6.0,15.0,89,0.00,,,0.00,WeatherCatV1.02B3,2013-02-08 13:00:00,
2013-02-08 07:05:00,32.1,29.2,30.30,North,9,5.0,12.0,89,0.00,,,0.00,WeatherCatV1.02B3,2013-02-08 13:05:00,
2013-02-08 07:10:00,32.1,29.2,30.30,North,5,4.0,7.0,89,0.00,,,0.00,WeatherCatV1.02B3,2013-02-08 13:10:00,
2013-02-08 07:15:00,32.1,29.2,30.30,North,350,11.0,12.0,89,0.00,,,0.00,WeatherCatV1.02B3,2013-02-08 13:15:00,
2013-02-08 07:20:00,32.1,29.2,30.30,NNE,13,6.0,8.0,89,0.00,,,0.00,WeatherCatV1.02B3,2013-02-08 13:20:00,
2013-02-08 07:25:00,32.2,29.3,30.30,NNE,23,3.0,7.0,89,0.00,,,0.00,WeatherCatV1.02B3,2013-02-08 13:25:00,
2013-02-08 07:30:00,32.2,29.3,30.30,North,9,10.0,10.0,89,0.00,,,0.00,WeatherCatV1.02B3,2013-02-08 13:30:00,
2013-02-08 07:35:00,32.2,29.3,30.30,NNE,12,10.0,10.0,89,0.00,,,0.00,WeatherCatV1.02B3,2013-02-08 13:35:00,
2013-02-08 07:40:00,32.3,29.4,30.31,North,0,11.0,12.0,89,0.00,,,0.00,WeatherCatV1.02B3,2013-02-08 13:40:00,
2013-02-08 07:45:00,32.3,29.4,30.31,NNE,12,9.0,12.0,89,0.00,,,0.00,WeatherCatV1.02B3,2013-02-08 13:45:00,
2013-02-08 07:50:00,32.4,29.5,30.31,NNE,24,6.0,7.0,89,0.00,,,0.00,WeatherCatV1.02B3,2013-02-08 13:50:00,
2013-02-08 07:55:00,32.4,29.5,30.32,North,10,10.0,13.0,89,0.00,,,0.00,WeatherCatV1.02B3,2013-02-08 13:55:00,
2013-02-08 08:00:00,32.4,29.5,30.32,North,10,5.0,7.0,89,0.00,,,0.00,WeatherCatV1.02B3,2013-02-08 14:00:00,
2013-02-08 08:05:00,32.5,29.6,30.32,North,5,7.0,11.0,89,0.00,,,0.00,WeatherCatV1.02B3,2013-02-08 14:05:00,
2013-02-08 08:10:00,32.5,29.3,30.32,NNE,12,6.0,10.0,88,0.00,,,0.00,WeatherCatV1.02B3,2013-02-08 14:10:00,
2013-02-08 08:15:00,32.5,29.3,30.33,NNW,346,7.0,9.0,88,0.00,,,0.00,WeatherCatV1.02B3,2013-02-08 14:15:00,
2013-02-08 08:20:00,32.6,29.4,30.33,North,355,5.0,10.0,88,0.00,,,0.00,WeatherCatV1.02B3,2013-02-08 14:20:00,
2013-02-08 08:25:00,32.6,29.4,30.33,North,355,9.0,9.0,88,0.00,,,0.00,WeatherCatV1.02B3,2013-02-08 14:25:00,
2013-02-08 08:30:00,32.7,29.5,30.33,NNE,17,5.0,8.0,88,0.00,,,0.00,WeatherCatV1.02B3,2013-02-08 14:30:00,
2013-02-08 08:35:00,32.7,29.5,30.34,NNE,17,10.0,11.0,88,0.00,,,0.00,WeatherCatV1.02B3,2013-02-08 14:35:00,
2013-02-08 08:40:00,32.7,29.5,30.34,NNE,20,5.0,9.0,88,0.00,,,0.00,WeatherCatV1.02B3,2013-02-08 14:40:00,
2013-02-08 08:45:00,32.8,29.6,30.34,NNW,346,6.0,7.0,88,0.00,,,0.00,WeatherCatV1.02B3,2013-02-08 14:45:00,
2013-02-08 08:50:00,32.9,29.7,30.34,North,5,9.0,13.0,88,0.00,,,0.00,WeatherCatV1.02B3,2013-02-08 14:50:00,
2013-02-08 08:55:00,33.0,29.8,30.34,North,11,4.0,10.0,88,0.00,,,0.00,WeatherCatV1.02B3,2013-02-08 14:55:00,
2013-02-08 09:00:00,33.1,29.9,30.34,North,0,6.0,9.0,88,0.00,,,0.00,WeatherCatV1.02B3,2013-02-08 15:00:00,
2013-02-08 09:05:00,33.3,30.1,30.34,North,355,9.0,10.0,88,0.00,,,0.00,WeatherCatV1.02B3,2013-02-08 15:05:00,
2013-02-08 09:10:00,33.4,30.2,30.34,North,5,2.0,8.0,88,0.00,,,0.00,WeatherCatV1.02B3,2013-02-08 15:10:00,
2013-02-08 09:15:00,33.5,30.3,30.34,NE,42,5.0,11.0,88,0.00,,,0.00,WeatherCatV1.02B3,2013-02-08 15:15:00,
2013-02-08 09:20:00,33.6,30.2,30.34,NE,36,4.0,8.0,87,0.00,,,0.00,WeatherCatV1.02B3,2013-02-08 15:20:00,
2013-02-08 09:25:00,33.9,30.7,30.35,North,355,3.0,6.0,88,0.00,,,0.00,WeatherCatV1.02B3,2013-02-08 15:25:00,
2013-02-08 09:30:00,34.1,30.6,30.35,ENE,69,3.0,7.0,87,0.00,,,0.00,WeatherCatV1.02B3,2013-02-08 15:30:00,
2013-02-08 09:35:00,34.3,30.8,30.35,NNE,28,3.0,3.0,87,0.00,,,0.00,WeatherCatV1.02B3,2013-02-08 15:35:00,
2013-02-08 09:40:00,34.5,30.8,30.35,NNE,13,4.0,9.0,86,0.00,,,0.00,WeatherCatV1.02B3,2013-02-08 15:40:00,
2013-02-08 09:45:00,34.7,31.2,30.35,NE,53,4.0,6.0,87,0.00,,,0.00,WeatherCatV1.02B3,2013-02-08 15:45:00,
2013-02-08 09:50:00,34.9,31.4,30.35,NE,42,1.0,4.0,87,0.00,,,0.00,WeatherCatV1.02B3,2013-02-08 15:50:00,
2013-02-08 09:55:00,35.3,31.8,30.35,North,0,8.0,11.0,87,0.00,,,0.00,WeatherCatV1.02B3,2013-02-08 15:55:00,
2013-02-08 10:00:00,35.4,31.3,30.36,NNE,17,4.0,7.0,85,0.00,,,0.00,WeatherCatV1.02B3,2013-02-08 16:00:00,
2013-02-08 10:05:00,35.9,32.4,30.36,ENE,69,9.0,9.0,87,0.00,,,0.00,WeatherCatV1.02B3,2013-02-08 16:05:00,
2013-02-08 10:10:00,36.1,32.0,30.36,North,5,8.0,10.0,85,0.00,,,0.00,WeatherCatV1.02B3,2013-02-08 16:10:00,
2013-02-08 10:15:00,36.2,31.5,30.36,North,355,8.0,10.0,83,0.00,,,0.00,WeatherCatV1.02B3,2013-02-08 16:15:00,
2013-02-08 10:20:00,36.1,31.4,30.36,NNE,21,5.0,10.0,83,0.00,,,0.00,WeatherCatV1.02B3,2013-02-08 16:20:00,
2013-02-08 10:25:00,36.0,31.3,30.37,North,0,7.0,10.0,83,0.00,,,0.00,WeatherCatV1.02B3,2013-02-08 16:25:00,
2013-02-08 10:30:00,35.9,31.2,30.37,North,349,4.0,9.0,83,0.00,,,0.00,WeatherCatV1.02B3,2013-02-08 16:30:00,
2013-02-08 10:35:00,35.9,31.2,30.37,North,9,3.0,4.0,83,0.00,,,0.00,WeatherCatV1.02B3,2013-02-08 16:35:00,
2013-02-08 10:40:00,36.4,32.0,30.37,NNW,341,5.0,6.0,84,0.00,,,0.00,WeatherCatV1.02B3,2013-02-08 16:40:00,
2013-02-08 10:45:00,36.7,32.0,30.37,North,0,4.0,7.0,83,0.00,,,0.00,WeatherCatV1.02B3,2013-02-08 16:45:00,
2013-02-08 10:50:00,37.2,32.5,30.36,North,5,6.0,10.0,83,0.00,,,0.00,WeatherCatV1.02B3,2013-02-08 16:50:00,
2013-02-08 10:55:00,37.6,32.6,30.36,North,355,4.0,6.0,82,0.00,,,0.00,WeatherCatV1.02B3,2013-02-08 16:55:00,
2013-02-08 11:00:00,37.7,32.7,30.36,NNE,19,3.0,5.0,82,0.00,,,0.00,WeatherCatV1.02B3,2013-02-08 17:00:00,
2013-02-08 11:05:00,38.2,33.5,30.36,NNE,13,7.0,8.0,83,0.00,,,0.00,WeatherCatV1.02B3,2013-02-08 17:05:00,
2013-02-08 11:10:00,38.6,33.3,30.36,North,355,3.0,7.0,81,0.00,,,0.00,WeatherCatV1.02B3,2013-02-08 17:10:00,
2013-02-08 11:15:00,39.0,34.0,30.36,NNE,26,4.0,5.0,82,0.00,,,0.00,WeatherCatV1.02B3,2013-02-08 17:15:00,
2013-02-08 11:20:00,39.6,33.9,30.35,ENE,65,7.0,11.0,80,0.00,,,0.00,WeatherCatV1.02B3,2013-02-08 17:20:00,
2013-02-08 11:25:00,39.7,33.7,30.35,ENE,58,4.0,7.0,79,0.00,,,0.00,WeatherCatV1.02B3,2013-02-08 17:25:00,
2013-02-08 11:30:00,39.7,33.7,30.35,NE,37,2.0,6.0,79,0.00,,,0.00,WeatherCatV1.02B3,2013-02-08 17:30:00,
2013-02-08 11:35:00,40.2,34.2,30.35,East,86,2.0,7.0,79,0.00,,,0.00,WeatherCatV1.02B3,2013-02-08 17:35:00,
2013-02-08 11:40:00,40.5,33.5,30.35,NE,53,3.0,7.0,76,0.00,,,0.00,WeatherCatV1.02B3,2013-02-08 17:40:00,
2013-02-08 11:45:00,40.9,33.9,30.35,East,84,5.0,8.0,76,0.00,,,0.00,WeatherCatV1.02B3,2013-02-08 17:45:00,
2013-02-08 11:50:00,41.2,33.9,30.34,North,0,4.0,5.0,75,0.00,,,0.00,WeatherCatV1.02B3,2013-02-08 17:50:00,
2013-02-08 11:55:00,41.5,33.8,30.34,NE,49,1.0,10.0,74,0.00,,,0.00,WeatherCatV1.02B3,2013-02-08 17:55:00,
2013-02-08 12:00:00,41.9,34.2,30.34,ESE,114,2.0,4.0,74,0.00,,,0.00,WeatherCatV1.02B3,2013-02-08 18:00:00,
2013-02-08 12:05:00,42.0,34.3,30.34,ESE,107,3.0,7.0,74,0.00,,,0.00,WeatherCatV1.02B3,2013-02-08 18:05:00,
2013-02-08 12:10:00,42.5,35.1,30.34,ESE,102,8.0,9.0,75,0.00,,,0.00,WeatherCatV1.02B3,2013-02-08 18:10:00,
2013-02-08 12:15:00,42.3,34.3,30.34,SSE,153,0.0,3.0,73,0.00,,,0.00,WeatherCatV1.02B3,2013-02-08 18:15:00,
2013-02-08 12:20:00,42.6,34.2,30.34,ENE,70,3.0,3.0,72,0.00,,,0.00,WeatherCatV1.02B3,2013-02-08 18:20:00,
2013-02-08 12:25:00,43.0,34.9,30.34,ESE,121,5.0,5.0,73,0.00,,,0.00,WeatherCatV1.02B3,2013-02-08 18:25:00,
2013-02-08 12:30:00,43.2,34.4,30.33,East,84,5.0,7.0,71,0.00,,,0.00,WeatherCatV1.02B3,2013-02-08 18:30:00,
2013-02-08 12:35:00,43.1,34.0,30.33,ENE,58,7.0,8.0,70,0.00,,,0.00,WeatherCatV1.02B3,2013-02-08 18:35:00,
2013-02-08 12:40:00,43.3,34.5,30.32,East,82,6.0,9.0,71,0.00,,,0.00,WeatherCatV1.02B3,2013-02-08 18:40:00,
2013-02-08 12:45:00,43.6,34.5,30.32,East,80,1.0,6.0,70,0.00,,,0.00,WeatherCatV1.02B3,2013-02-08 18:45:00,
2013-02-08 12:50:00,44.0,35.2,30.32,NE,40,1.0,2.0,71,0.00,,,0.00,WeatherCatV1.02B3,2013-02-08 18:50:00,
2013-02-08 12:55:00,44.3,34.4,30.32,ENE,61,4.0,6.0,68,0.00,,,0.00,WeatherCatV1.02B3,2013-02-08 18:55:00,
2013-02-08 13:00:00,44.6,34.3,30.32,NE,49,3.0,9.0,67,0.00,,,0.00,WeatherCatV1.02B3,2013-02-08 19:00:00,
2013-02-08 13:05:00,44.8,34.5,30.32,North,355,4.0,6.0,67,0.00,,,0.00,WeatherCatV1.02B3,2013-02-08 19:05:00,
2013-02-08 13:10:00,44.9,33.9,30.32,NE,36,1.0,5.0,65,0.00,,,0.00,WeatherCatV1.02B3,2013-02-08 19:10:00,
2013-02-08 13:15:00,44.9,34.2,30.31,NE,47,4.0,7.0,66,0.00,,,0.00,WeatherCatV1.02B3,2013-02-08 19:15:00,
2013-02-08 13:20:00,45.1,35.2,30.31,ENE,74,5.0,9.0,68,0.00,,,0.00,WeatherCatV1.02B3,2013-02-08 19:20:00,
2013-02-08 13:25:00,45.2,35.6,30.31,ENE,75,4.0,7.0,69,0.00,,,0.00,WeatherCatV1.02B3,2013-02-08 19:25:00,
2013-02-08 13:30:00,45.6,34.5,30.31,NE,47,8.0,8.0,65,0.00,,,0.00,WeatherCatV1.02B3,2013-02-08 19:30:00,
2013-02-08 13:35:00,45.9,35.2,30.31,NE,41,3.0,9.0,66,0.00,,,0.00,WeatherCatV1.02B3,2013-02-08 19:35:00,
2013-02-08 13:40:00,45.9,34.4,30.31,ENE,67,2.0,7.0,64,0.00,,,0.00,WeatherCatV1.02B3,2013-02-08 19:40:00,
2013-02-08 13:45:00,46.0,34.5,30.32,NW,309,0.0,3.0,64,0.00,,,0.00,WeatherCatV1.02B3,2013-02-08 19:45:00,
2013-02-08 13:50:00,46.2,34.3,30.32,North,0,1.0,4.0,63,0.00,,,0.00,WeatherCatV1.02B3,2013-02-08 19:50:00,
2013-02-08 13:55:00,46.3,35.2,30.32,NNE,15,3.0,4.0,65,0.00,,,0.00,WeatherCatV1.02B3,2013-02-08 19:55:00,
2013-02-08 14:00:00,46.7,34.8,30.33,ENE,75,4.0,5.0,63,0.00,,,0.00,WeatherCatV1.02B3,2013-02-08 20:00:00,
2013-02-08 14:05:00,46.8,34.1,30.34,East,85,0.0,1.0,61,0.00,,,0.00,WeatherCatV1.02B3,2013-02-08 20:05:00,
2013-02-08 14:10:00,47.0,34.7,30.35,NW,322,3.0,8.0,62,0.00,,,0.00,WeatherCatV1.02B3,2013-02-08 20:10:00,
2013-02-08 14:15:00,47.1,33.9,30.34,North,5,0.0,3.0,60,0.00,,,0.00,WeatherCatV1.02B3,2013-02-08 20:15:00,
2013-02-08 14:20:00,47.2,34.4,30.34,NW,324,4.0,6.0,61,0.00,,,0.00,WeatherCatV1.02B3,2013-02-08 20:20:00,
2013-02-08 14:25:00,47.3,33.7,30.33,North,5,1.0,2.0,59,0.00,,,0.00,WeatherCatV1.02B3,2013-02-08 20:25:00,
2013-02-08 14:30:00,47.4,35.0,30.33,North,0,2.0,3.0,62,0.00,,,0.00,WeatherCatV1.02B3,2013-02-08 20:30:00,
2013-02-08 14:35:00,47.5,34.7,30.33,NW,322,2.0,4.0,61,0.00,,,0.00,WeatherCatV1.02B3,2013-02-08 20:35:00,
2013-02-08 14:40:00,47.8,36.2,30.33,NE,36,3.0,3.0,64,0.00,,,0.00,WeatherCatV1.02B3,2013-02-08 20:40:00,
2013-02-08 14:45:00,48.0,35.6,30.33,North,5,5.0,7.0,62,0.00,,,0.00,WeatherCatV1.02B3,2013-02-08 20:45:00,
2013-02-08 14:50:00,47.9,34.7,30.33,WNW,294,1.0,1.0,60,0.00,,,0.00,WeatherCatV1.02B3,2013-02-08 20:50:00,
2013-02-08 14:55:00,47.8,34.6,30.32,NW,326,1.0,6.0,60,0.00,,,0.00,WeatherCatV1.02B3,2013-02-08 20:55:00,
2013-02-08 15:00:00,47.8,35.4,30.33,NE,34,4.0,5.0,62,0.00,,,0.00,WeatherCatV1.02B3,2013-02-08 21:00:00,
2013-02-08 15:05:00,47.8,34.2,30.33,ENE,59,3.0,7.0,59,0.00,,,0.00,WeatherCatV1.02B3,2013-02-08 21:05:00,
2013-02-08 15:10:00,47.5,33.9,30.33,ENE,75,1.0,4.0,59,0.00,,,0.00,WeatherCatV1.02B3,2013-02-08 21:10:00,
2013-02-08 15:15:00,47.4,34.2,30.33,North,5,1.0,6.0,60,0.00,,,0.00,WeatherCatV1.02B3,2013-02-08 21:15:00,
2013-02-08 15:20:00,47.6,34.8,30.33,NNW,334,2.0,5.0,61,0.00,,,0.00,WeatherCatV1.02B3,2013-02-08 21:20:00,
2013-02-08 15:25:00,47.5,34.7,30.33,ENE,74,3.0,5.0,61,0.00,,,0.00,WeatherCatV1.02B3,2013-02-08 21:25:00,
2013-02-08 15:30:00,47.5,34.7,30.32,ENE,58,2.0,5.0,61,0.00,,,0.00,WeatherCatV1.02B3,2013-02-08 21:30:00,
2013-02-08 15:35:00,47.5,34.7,30.31,East,96,2.0,2.0,61,0.00,,,0.00,WeatherCatV1.02B3,2013-02-08 21:35:00,
2013-02-08 15:40:00,47.3,35.3,30.30,NNE,13,2.0,4.0,63,0.00,,,0.00,WeatherCatV1.02B3,2013-02-08 21:40:00,
2013-02-08 15:45:00,47.2,34.4,30.30,ENE,66,5.0,8.0,61,0.00,,,0.00,WeatherCatV1.02B3,2013-02-08 21:45:00,
2013-02-08 15:50:00,47.0,34.3,30.30,ENE,68,2.0,8.0,61,0.00,,,0.00,WeatherCatV1.02B3,2013-02-08 21:50:00,
2013-02-08 15:55:00,46.8,34.1,30.30,ENE,60,2.0,8.0,61,0.00,,,0.00,WeatherCatV1.02B3,2013-02-08 21:55:00,
2013-02-08 16:00:00,46.8,34.1,30.30,ENE,74,7.0,7.0,61,0.00,,,0.00,WeatherCatV1.02B3,2013-02-08 22:00:00,
2013-02-08 16:05:00,46.5,34.2,30.29,East,88,1.0,5.0,62,0.00,,,0.00,WeatherCatV1.02B3,2013-02-08 22:05:00,
2013-02-08 16:10:00,46.3,34.0,30.28,East,92,6.0,7.0,62,0.00,,,0.00,WeatherCatV1.02B3,2013-02-08 22:10:00,
2013-02-08 16:15:00,46.0,33.7,30.28,East,89,3.0,8.0,62,0.00,,,0.00,WeatherCatV1.02B3,2013-02-08 22:15:00,
2013-02-08 16:20:00,45.9,34.4,30.29,East,79,2.0,7.0,64,0.00,,,0.00,WeatherCatV1.02B3,2013-02-08 22:20:00,
2013-02-08 16:25:00,46.0,34.5,30.28,East,92,3.0,8.0,64,0.00,,,0.00,WeatherCatV1.02B3,2013-02-08 22:25:00,
2013-02-08 16:30:00,46.0,33.7,30.28,ENE,66,2.0,9.0,62,0.00,,,0.00,WeatherCatV1.02B3,2013-02-08 22:30:00,
2013-02-08 16:35:00,45.8,33.9,30.29,ENE,63,5.0,7.0,63,0.00,,,0.00,WeatherCatV1.02B3,2013-02-08 22:35:00,
2013-02-08 16:40:00,45.7,34.2,30.29,ENE,70,7.0,8.0,64,0.00,,,0.00,WeatherCatV1.02B3,2013-02-08 22:40:00,
2013-02-08 16:45:00,45.5,34.0,30.29,ENE,74,3.0,7.0,64,0.00,,,0.00,WeatherCatV1.02B3,2013-02-08 22:45:00,
2013-02-08 16:50:00,45.4,33.9,30.29,ENE,76,3.0,4.0,64,0.00,,,0.00,WeatherCatV1.02B3,2013-02-08 22:50:00,
2013-02-08 16:55:00,45.2,33.4,30.30,ENE,65,3.0,5.0,63,0.00,,,0.00,WeatherCatV1.02B3,2013-02-08 22:55:00,
2013-02-08 17:00:00,45.0,33.2,30.29,ENE,58,2.0,3.0,63,0.00,,,0.00,WeatherCatV1.02B3,2013-02-08 23:00:00,
2013-02-08 17:05:00,44.7,33.3,30.30,ENE,64,5.0,6.0,64,0.00,,,0.00,WeatherCatV1.02B3,2013-02-08 23:05:00,
2013-02-08 17:10:00,44.3,32.9,30.30,East,87,2.0,3.0,64,0.00,,,0.00,WeatherCatV1.02B3,2013-02-08 23:10:00,
2013-02-08 17:15:00,44.1,33.1,30.31,NE,55,3.0,5.0,65,0.00,,,0.00,WeatherCatV1.02B3,2013-02-08 23:15:00,
2013-02-08 17:20:00,43.8,33.2,30.31,ENE,58,1.0,4.0,66,0.00,,,0.00,WeatherCatV1.02B3,2013-02-08 23:20:00,
2013-02-08 17:25:00,43.6,33.4,30.31,NE,54,1.0,1.0,67,0.00,,,0.00,WeatherCatV1.02B3,2013-02-08 23:25:00,
2013-02-08 17:30:00,43.3,33.5,30.31,NE,54,1.0,3.0,68,0.00,,,0.00,WeatherCatV1.02B3,2013-02-08 23:30:00,
2013-02-08 17:35:00,43.1,33.3,30.31,NE,51,0.0,1.0,68,0.00,,,0.00,WeatherCatV1.02B3,2013-02-08 23:35:00,
2013-02-08 17:40:00,42.7,33.2,30.31,NE,55,3.0,3.0,69,0.00,,,0.00,WeatherCatV1.02B3,2013-02-08 23:40:00,
2013-02-08 17:45:00,42.3,33.2,30.31,ENE,66,2.0,4.0,70,0.00,,,0.00,WeatherCatV1.02B3,2013-02-08 23:45:00,
2013-02-08 17:50:00,41.8,33.1,30.32,ENE,67,1.0,3.0,71,0.00,,,0.00,WeatherCatV1.02B3,2013-02-08 23:50:00,
2013-02-08 17:55:00,41.3,33.0,30.31,East,85,2.0,3.0,72,0.00,,,0.00,WeatherCatV1.02B3,2013-02-08 23:55:00,
2013-02-08 18:00:00,40.8,32.8,30.31,East,79,1.0,3.0,73,0.00,,,0.00,WeatherCatV1.02B3,2013-02-09 00:00:00,
2013-02-08 18:05:00,40.5,32.5,30.31,ENE,61,1.0,7.0,73,0.00,,,0.00,WeatherCatV1.02B3,2013-02-09 00:05:00,
2013-02-08 18:10:00,40.3,32.7,30.31,East,86,1.0,4.0,74,0.00,,,0.00,WeatherCatV1.02B3,2013-02-09 00:10:00,
2013-02-08 18:15:00,40.0,32.7,30.32,East,81,2.0,3.0,75,0.00,,,0.00,WeatherCatV1.02B3,2013-02-09 00:15:00,
2013-02-08 18:20:00,39.8,32.5,30.32,East,81,2.0,2.0,75,0.00,,,0.00,WeatherCatV1.02B3,2013-02-09 00:20:00,
2013-02-08 18:25:00,39.6,32.3,30.32,ENE,76,1.0,2.0,75,0.00,,,0.00,WeatherCatV1.02B3,2013-02-09 00:25:00,
2013-02-08 18:30:00,39.3,32.4,30.32,East,80,1.0,5.0,76,0.00,,,0.00,WeatherCatV1.02B3,2013-02-09 00:30:00,
2013-02-08 18:35:00,39.1,32.2,30.33,ESE,102,1.0,3.0,76,0.00,,,0.00,WeatherCatV1.02B3,2013-02-09 00:35:00,
2013-02-08 18:40:00,38.8,31.9,30.32,East,96,3.0,3.0,76,0.00,,,0.00,WeatherCatV1.02B3,2013-02-09 00:40:00,
2013-02-08 18:45:00,38.6,32.0,30.33,ENE,71,1.0,4.0,77,0.00,,,0.00,WeatherCatV1.02B3,2013-02-09 00:45:00,
2013-02-08 18:50:00,38.4,31.8,30.32,ESE,102,2.0,3.0,77,0.00,,,0.00,WeatherCatV1.02B3,2013-02-09 00:50:00,
2013-02-08 18:55:00,38.2,32.0,30.33,East,84,1.0,3.0,78,0.00,,,0.00,WeatherCatV1.02B3,2013-02-09 00:55:00,
2013-02-08 19:00:00,37.9,31.7,30.32,ENE,75,3.0,3.0,78,0.00,,,0.00,WeatherCatV1.02B3,2013-02-09 01:00:00,
2013-02-08 19:05:00,37.6,31.7,30.32,East,85,2.0,5.0,79,0.00,,,0.00,WeatherCatV1.02B3,2013-02-09 01:05:00,
2013-02-08 19:10:00,37.4,31.5,30.32,East,92,2.0,5.0,79,0.00,,,0.00,WeatherCatV1.02B3,2013-02-09 01:10:00,
2013-02-08 19:15:00,37.1,31.5,30.32,East,86,3.0,3.0,80,0.00,,,0.00,WeatherCatV1.02B3,2013-02-09 01:15:00,
2013-02-08 19:20:00,37.0,31.4,30.32,ENE,69,4.0,4.0,80,0.00,,,0.00,WeatherCatV1.02B3,2013-02-09 01:20:00,
2013-02-08 19:25:00,36.8,31.2,30.32,East,91,2.0,5.0,80,0.00,,,0.00,WeatherCatV1.02B3,2013-02-09 01:25:00,
2013-02-08 19:30:00,36.6,31.3,30.32,East,93,3.0,5.0,81,0.00,,,0.00,WeatherCatV1.02B3,2013-02-09 01:30:00,
2013-02-08 19:35:00,36.4,31.1,30.32,SE,126,4.0,6.0,81,0.00,,,0.00,WeatherCatV1.02B3,2013-02-09 01:35:00,
2013-02-08 19:40:00,36.3,31.3,30.32,East,94,1.0,4.0,82,0.00,,,0.00,WeatherCatV1.02B3,2013-02-09 01:40:00,
2013-02-08 19:45:00,36.1,31.1,30.31,East,81,1.0,5.0,82,0.00,,,0.00,WeatherCatV1.02B3,2013-02-09 01:45:00,
2013-02-08 19:50:00,35.9,31.2,30.31,ESE,105,4.0,7.0,83,0.00,,,0.00,WeatherCatV1.02B3,2013-02-09 01:50:00,
2013-02-08 19:55:00,35.8,31.2,30.31,ESE,109,8.0,8.0,83,0.00,,,0.00,WeatherCatV1.02B3,2013-02-09 01:55:00,
2013-02-08 20:00:00,35.7,31.1,30.32,East,92,2.0,7.0,83,0.00,,,0.00,WeatherCatV1.02B3,2013-02-09 02:00:00,
2013-02-08 20:05:00,35.5,30.9,30.31,ESE,112,2.0,7.0,83,0.00,,,0.00,WeatherCatV1.02B3,2013-02-09 02:05:00,
2013-02-08 20:10:00,35.4,30.8,30.31,ESE,111,9.0,9.0,83,0.00,,,0.00,WeatherCatV1.02B3,2013-02-09 02:10:00,
2013-02-08 20:15:00,35.3,30.7,30.31,ESE,113,4.0,9.0,83,0.00,,,0.00,WeatherCatV1.02B3,2013-02-09 02:15:00,
2013-02-08 20:20:00,35.2,30.6,30.31,SE,128,4.0,6.0,83,0.00,,,0.00,WeatherCatV1.02B3,2013-02-09 02:20:00,
2013-02-08 20:25:00,35.2,30.9,30.31,ESE,109,5.0,7.0,84,0.00,,,0.00,WeatherCatV1.02B3,2013-02-09 02:25:00,
2013-02-08 20:30:00,35.0,30.7,30.31,East,93,6.0,9.0,84,0.00,,,0.00,WeatherCatV1.02B3,2013-02-09 02:30:00,
2013-02-08 20:35:00,34.9,30.6,30.30,SE,140,4.0,8.0,84,0.00,,,0.00,WeatherCatV1.02B3,2013-02-09 02:35:00,
2013-02-08 20:40:00,34.8,30.5,30.30,ENE,78,4.0,8.0,84,0.00,,,0.00,WeatherCatV1.02B3,2013-02-09 02:40:00,
2013-02-08 20:45:00,34.6,30.3,30.30,ESE,103,5.0,7.0,84,0.00,,,0.00,WeatherCatV1.02B3,2013-02-09 02:45:00,
2013-02-08 20:50:00,34.6,30.3,30.31,ESE,121,3.0,6.0,84,0.00,,,0.00,WeatherCatV1.02B3,2013-02-09 02:50:00,
2013-02-08 20:55:00,34.4,30.4,30.31,ESE,115,2.0,4.0,85,0.00,,,0.00,WeatherCatV1.02B3,2013-02-09 02:55:00,
2013-02-08 21:00:00,34.3,30.3,30.32,SE,127,4.0,6.0,85,0.00,,,0.00,WeatherCatV1.02B3,2013-02-09 03:00:00,
2013-02-08 21:05:00,34.2,30.2,30.32,SE,131,2.0,3.0,85,0.00,,,0.00,WeatherCatV1.02B3,2013-02-09 03:05:00,
2013-02-08 21:10:00,34.1,30.1,30.32,SE,134,1.0,3.0,85,0.00,,,0.00,WeatherCatV1.02B3,2013-02-09 03:10:00,
2013-02-08 21:15:00,33.9,29.9,30.32,ESE,117,1.0,2.0,85,0.00,,,0.00,WeatherCatV1.02B3,2013-02-09 03:15:00,
2013-02-08 21:20:00,33.7,30.0,30.32,SE,133,3.0,4.0,86,0.00,,,0.00,WeatherCatV1.02B3,2013-02-09 03:20:00,
2013-02-08 21:25:00,33.4,30.0,30.32,SE,138,2.0,4.0,87,0.00,,,0.00,WeatherCatV1.02B3,2013-02-09 03:25:00,
2013-02-08 21:30:00,33.2,29.8,30.32,ESE,112,4.0,5.0,87,0.00,,,0.00,WeatherCatV1.02B3,2013-02-09 03:30:00,
2013-02-08 21:35:00,33.1,29.7,30.31,East,96,1.0,8.0,87,0.00,,,0.00,WeatherCatV1.02B3,2013-02-09 03:35:00,
2013-02-08 21:40:00,32.9,29.5,30.31,ESE,121,2.0,3.0,87,0.00,,,0.00,WeatherCatV1.02B3,2013-02-09 03:40:00,
2013-02-08 21:45:00,32.8,29.4,30.31,ESE,103,2.0,4.0,87,0.00,,,0.00,WeatherCatV1.02B3,2013-02-09 03:45:00,
2013-02-08 21:50:00,32.7,29.5,30.31,SSE,157,2.0,5.0,88,0.00,,,0.00,WeatherCatV1.02B3,2013-02-09 03:50:00,
2013-02-08 21:55:00,32.6,29.4,30.31,ESE,104,2.0,5.0,88,0.00,,,0.00,WeatherCatV1.02B3,2013-02-09 03:55:00,
2013-02-08 22:00:00,32.5,29.3,30.31,SE,137,0.0,2.0,88,0.00,,,0.00,WeatherCatV1.02B3,2013-02-09 04:00:00,
2013-02-08 22:05:00,32.4,29.2,30.30,SE,135,2.0,4.0,88,0.00,,,0.00,WeatherCatV1.02B3,2013-02-09 04:05:00,
2013-02-08 22:10:00,32.4,29.2,30.30,ESE,116,1.0,3.0,88,0.00,,,0.00,WeatherCatV1.02B3,2013-02-09 04:10:00,
2013-02-08 22:15:00,32.3,29.2,30.30,SE,124,1.0,4.0,88,0.00,,,0.00,WeatherCatV1.02B3,2013-02-09 04:15:00,
2013-02-08 22:20:00,32.3,29.2,30.30,SSE,148,3.0,3.0,88,0.00,,,0.00,WeatherCatV1.02B3,2013-02-09 04:20:00,
2013-02-08 22:25:00,32.3,29.2,30.30,ESE,111,1.0,3.0,88,0.00,,,0.00,WeatherCatV1.02B3,2013-02-09 04:25:00,
2013-02-08 22:30:00,32.2,29.1,30.30,SE,134,1.0,7.0,88,0.00,,,0.00,WeatherCatV1.02B3,2013-02-09 04:30:00,
2013-02-08 22:35:00,32.2,29.1,30.30,ESE,117,3.0,5.0,88,0.00,,,0.00,WeatherCatV1.02B3,2013-02-09 04:35:00,
2013-02-08 22:40:00,32.1,29.0,30.30,ESE,107,2.0,3.0,88,0.00,,,0.00,WeatherCatV1.02B3,2013-02-09 04:40:00,
2013-02-08 22:45:00,32.0,28.9,30.30,SE,132,2.0,3.0,88,0.00,,,0.00,WeatherCatV1.02B3,2013-02-09 04:45:00,
2013-02-08 22:50:00,31.9,28.8,30.30,SSE,164,1.0,5.0,88,0.00,,,0.00,WeatherCatV1.02B3,2013-02-09 04:50:00,
2013-02-08 22:55:00,31.8,28.7,30.31,SSE,165,3.0,7.0,88,0.00,,,0.00,WeatherCatV1.02B3,2013-02-09 04:55:00,
2013-02-08 23:00:00,31.8,28.7,30.31,SE,144,2.0,3.0,88,0.00,,,0.00,WeatherCatV1.02B3,2013-02-09 05:00:00,
2013-02-08 23:05:00,31.8,28.9,30.31,ESE,111,3.0,4.0,89,0.00,,,0.00,WeatherCatV1.02B3,2013-02-09 05:05:00,
2013-02-08 23:10:00,31.8,28.9,30.31,ESE,111,3.0,5.0,89,0.00,,,0.00,WeatherCatV1.02B3,2013-02-09 05:10:00,
2013-02-08 23:15:00,31.9,29.0,30.31,ESE,119,3.0,5.0,89,0.00,,,0.00,WeatherCatV1.02B3,2013-02-09 05:15:00,
2013-02-08 23:20:00,31.9,28.8,30.31,SE,133,4.0,5.0,88,0.00,,,0.00,WeatherCatV1.02B3,2013-02-09 05:20:00,
2013-02-08 23:25:00,31.8,28.9,30.31,SSE,148,2.0,6.0,89,0.00,,,0.00,WeatherCatV1.02B3,2013-02-09 05:25:00,
2013-02-08 23:30:00,31.8,28.7,30.31,SE,124,3.0,4.0,88,0.00,,,0.00,WeatherCatV1.02B3,2013-02-09 05:30:00,
2013-02-08 23:35:00,31.7,28.6,30.31,East,99,2.0,6.0,88,0.00,,,0.00,WeatherCatV1.02B3,2013-02-09 05:35:00,
2013-02-08 23:40:00,31.6,28.5,30.31,SE,138,4.0,6.0,88,0.00,,,0.00,WeatherCatV1.02B3,2013-02-09 05:40:00,
2013-02-08 23:45:00,31.6,28.7,30.31,SE,126,3.0,7.0,89,0.00,,,0.00,WeatherCatV1.02B3,2013-02-09 05:45:00,
2013-02-08 23:50:00,31.6,28.7,30.31,SE,136,9.0,9.0,89,0.00,,,0.00,WeatherCatV1.02B3,2013-02-09 05:50:00,
2013-02-08 23:55:00,31.7,28.8,30.31,SSE,148,2.0,5.0,89,0.00,,,0.00,WeatherCatV1.02B3,2013-02-09 05:55:00,